Tracking 29933 objects as of 2-Dec-2024
HD Live streaming from Space Station
objects crossing your sky now

INMARSAT 4-F2

Track INMARSAT 4-F2 now!
INMARSAT 4-F2 is classified as:


NORAD ID: 28899
Int'l Code: 2005-044A
Perigee: 35,781.8 km
Apogee: 35,805.9 km
Inclination: 4.4 °
Period: 1,436.1 minutes
Semi major axis: 42164 km
RCS: 4.4668 m2 (large)
Launch date: November 8, 2005
Source: International Mobile Satellite Organization (INMARSAT) (IM)
Launch site: SEA LAUNCH (SEAL)

Nearly the size of a double-decker bus; more than 600 channels.
Your satellite tracking list
Your tracking list is empty




NASA's NSSDC Master Catalog

Two Line Element Set (TLE):
1 28899U 05044A   24337.40287424 -.00000236  00000-0  00000+0 0  9990
2 28899   4.3806  42.9741 0002858 212.8131 104.4877  1.00271424 69868
Source of the keplerian elements: AFSPC